timestamp,surface_pressure_avg,surface_temp_avg,battery_voltage,lat,long
2022-01-07 00:09:00+00:00,266.4247,3.4,12.57,47.84626,-54.09684
2022-01-07 00:19:00+00:00,264.9697,3.4,12.57,47.84626,-54.09684
2022-01-07 00:29:00+00:00,264.7064,3.4,12.57,47.84626,-54.09684
2022-01-07 00:39:00+00:00,268.9364,3.4,12.57,47.84626,-54.09684
2022-01-07 00:49:00+00:00,269.3731,3.4,12.57,47.84626,-54.09684
2022-01-07 00:59:00+00:00,268.7331,3.4,12.57,47.84626,-54.09684
2022-01-07 01:09:00+00:00,277.0447,3.4,12.57,47.84626,-54.09684
2022-01-07 01:19:00+00:00,286.363,3.4,12.57,47.84626,-54.09684
2022-01-07 01:29:00+00:00,289.9847,3.4,12.57,47.84626,-54.09684
2022-01-07 01:39:00+00:00,293.0681,3.4,12.57,47.84626,-54.09684
2022-01-07 01:49:00+00:00,302.0764,3.4,12.57,47.84626,-54.09684
2022-01-07 01:59:00+00:00,303.1281,3.4,12.57,47.84626,-54.09684
2022-01-07 02:09:00+00:00,301.1764,3.4,12.57,47.84626,-54.09684
2022-01-07 02:19:00+00:00,305.8997,3.4,12.49,47.84626,-54.09684
2022-01-07 02:29:00+00:00,315.598,3.4,12.49,47.84626,-54.09684
2022-01-07 02:39:00+00:00,316.713,3.4,12.49,47.84626,-54.09684
2022-01-07 02:49:00+00:00,318.9012,3.4,12.49,47.84626,-54.09684
2022-01-07 02:59:00+00:00,321.0797,3.4,12.49,47.84626,-54.09684
2022-01-07 03:09:00+00:00,325.158,3.4,12.49,47.84626,-54.09684
2022-01-07 03:19:00+00:00,327.3146,3.4,12.49,47.84626,-54.09684
2022-01-07 03:29:00+00:00,334.8079,3.4,12.49,47.84626,-54.09684
2022-01-07 03:39:00+00:00,335.858,3.4,12.49,47.84626,-54.09684
2022-01-07 03:49:00+00:00,333.2047,3.4,12.49,47.84626,-54.09684
2022-01-07 03:59:00+00:00,328.8280000000001,3.4,12.49,47.84626,-54.09684
2022-01-07 04:09:00+00:00,323.3447,3.4,12.49,47.84626,-54.09684
2022-01-07 04:19:00+00:00,321.5063,3.4,12.49,47.84626,-54.09684
2022-01-07 04:29:00+00:00,321.6747,3.39,12.49,47.84626,-54.09684
2022-01-07 04:39:00+00:00,320.688,3.33,12.49,47.84626,-54.09684
2022-01-07 04:49:00+00:00,314.4697,3.3,12.49,47.84626,-54.09684
2022-01-07 04:59:00+00:00,309.0146,3.3,12.49,47.84626,-54.09684
2022-01-07 05:09:00+00:00,312.1946,3.3,12.49,47.84626,-54.09684
2022-01-07 05:19:00+00:00,307.7197,3.3,12.49,47.84626,-54.09684
2022-01-07 05:29:00+00:00,300.3697,3.29,12.49,47.84626,-54.09684
2022-01-07 05:39:00+00:00,299.1964,3.28,12.49,47.84626,-54.09684
2022-01-07 05:49:00+00:00,299.2214,3.1,12.49,47.84626,-54.09684
2022-01-07 05:59:00+00:00,288.3713,3.0,12.49,47.84626,-54.09684
2022-01-07 06:09:00+00:00,280.3064,3.01,12.49,47.84626,-54.09684
2022-01-07 06:19:00+00:00,272.7097,3.1,12.41,47.84626,-54.09684
2022-01-07 06:29:00+00:00,265.2514,3.1,12.41,47.84626,-54.09684
2022-01-07 06:39:00+00:00,254.7131,3.0,12.41,47.84626,-54.09684
2022-01-07 06:49:00+00:00,248.6664,3.0,12.41,47.84626,-54.09684
2022-01-07 06:59:00+00:00,236.6148,3.0,12.41,47.84626,-54.09684
2022-01-07 07:09:00+00:00,222.9648,2.9,12.41,47.84626,-54.09684
2022-01-07 07:19:01+00:00,217.2381,2.8,12.41,47.84626,-54.09684
2022-01-07 07:29:01+00:00,211.7998,2.8,12.41,47.84626,-54.09684
2022-01-07 07:39:01+00:00,203.7615,2.88,12.41,47.84626,-54.09684
2022-01-07 07:49:01+00:00,196.5715,2.9,12.41,47.84626,-54.09684
2022-01-07 07:59:01+00:00,188.6714,2.9,12.41,47.84626,-54.09684
2022-01-07 08:09:01+00:00,188.3249,2.97,12.41,47.84626,-54.09684
2022-01-07 08:19:00+00:00,191.1665,3.06,12.41,47.84626,-54.09684
2022-01-07 08:29:00+00:00,193.6447,3.1,12.41,47.84626,-54.09684
2022-01-07 08:39:00+00:00,195.2298,3.1,12.41,47.84626,-54.09684
2022-01-07 08:49:00+00:00,191.4315,3.15,12.41,47.84626,-54.09684
2022-01-07 08:59:00+00:00,195.2848,3.19,12.41,47.84626,-54.09684
2022-01-07 09:09:00+00:00,200.1631,3.2,12.41,47.84626,-54.09684
2022-01-07 09:19:00+00:00,197.8615,3.2,12.41,47.84626,-54.09684
2022-01-07 09:29:00+00:00,203.6648,3.2,12.41,47.84626,-54.09684
2022-01-07 09:39:00+00:00,217.1865,3.2,12.41,47.84626,-54.09684
2022-01-07 09:49:00+00:00,223.7514,3.23,12.41,47.84626,-54.09684
2022-01-07 09:59:00+00:00,222.6581,3.2,12.41,47.84626,-54.09684
2022-01-07 10:09:00+00:00,228.0164,3.2,12.41,47.84626,-54.09684
2022-01-07 10:19:00+00:00,242.4597,3.2,12.41,47.84626,-54.09684
2022-01-07 10:29:00+00:00,249.7981,3.21,12.41,47.84626,-54.09684
2022-01-07 10:39:00+00:00,249.1148,3.22,12.41,47.84626,-54.09684
2022-01-07 10:49:00+00:00,258.2498,3.24,12.41,47.84626,-54.09684
2022-01-07 10:59:00+00:00,271.5214,3.27,12.41,47.84626,-54.09684
2022-01-07 11:09:00+00:00,277.3214,3.3,12.41,47.84626,-54.09684
2022-01-07 11:19:00+00:00,270.7515,3.29,12.41,47.84626,-54.09684
2022-01-07 11:29:00+00:00,271.9964,3.24,12.41,47.84626,-54.09684
2022-01-07 11:39:00+00:00,279.1597,3.24,12.41,47.84626,-54.09684
2022-01-07 11:49:00+00:00,283.7313,3.27,12.41,47.84626,-54.09684
2022-01-07 11:59:00+00:00,283.5696,3.3,12.41,47.84626,-54.09684
2022-01-07 12:09:00+00:00,295.913,3.3,12.41,47.84626,-54.09684
2022-01-07 12:19:00+00:00,301.9596,3.3,12.41,47.84626,-54.09684
2022-01-07 12:29:00+00:00,303.0563,3.4,12.41,47.84626,-54.09684
2022-01-07 12:39:00+00:00,312.6381,3.39,12.41,47.84626,-54.09684
2022-01-07 12:49:00+00:00,325.778,3.33,12.41,47.84626,-54.09684
2022-01-07 12:59:00+00:00,325.8313,3.36,12.41,47.84626,-54.09684
2022-01-07 13:09:00+00:00,325.4779,3.39,12.41,47.84626,-54.09684
2022-01-07 13:19:00+00:00,340.7446,3.38,12.57,47.84626,-54.09684
2022-01-07 13:29:00+00:00,351.1179,3.4,12.57,47.84626,-54.09684
2022-01-07 13:39:00+00:00,345.11300000000006,3.4,12.57,47.84626,-54.09684
2022-01-07 13:49:00+00:00,356.2229,3.4,12.57,47.84626,-54.09684
2022-01-07 13:59:00+00:00,368.5079,3.4,12.57,47.84626,-54.09684
2022-01-07 14:09:00+00:00,374.2496,3.4,12.57,47.84626,-54.09684
2022-01-07 14:19:00+00:00,378.1061,3.4,12.89,47.84626,-54.09684
2022-01-07 14:29:00+00:00,384.2429,3.4,12.89,47.84626,-54.09684
2022-01-07 14:39:00+00:00,393.5578,3.53,12.89,47.84626,-54.09684
2022-01-07 14:49:00+00:00,392.5312,3.6,12.89,47.84626,-54.09684
2022-01-07 14:59:00+00:00,389.2579,3.56,12.89,47.84626,-54.09684
2022-01-07 15:09:00+00:00,386.5511,3.58,12.89,47.84626,-54.09684
2022-01-07 15:19:00+00:00,386.4913,3.68,14.0,47.84626,-54.09684
2022-01-07 15:29:00+00:00,387.7062,3.6,14.0,47.84626,-54.09684
2022-01-07 15:39:00+00:00,391.7096,3.5,14.0,47.84626,-54.09684
2022-01-07 15:49:00+00:00,401.9929,3.5,14.0,47.84626,-54.09684
2022-01-07 15:59:00+00:00,409.3996,3.47,14.0,47.84626,-54.09684
2022-01-07 16:09:00+00:00,399.733,3.4,14.0,47.84626,-54.09684
2022-01-07 16:19:00+00:00,391.7679,3.2,14.24,47.84626,-54.09684
2022-01-07 16:29:00+00:00,395.5079,3.16,14.24,47.84626,-54.09684
2022-01-07 16:39:00+00:00,393.8362,3.2,14.24,47.84626,-54.09684
2022-01-07 16:49:00+00:00,375.9995,3.29,14.24,47.84626,-54.09684
2022-01-07 16:59:00+00:00,373.9596,3.33,14.24,47.84626,-54.09684
2022-01-07 17:09:00+00:00,383.1179,3.4,14.24,47.84626,-54.09684
2022-01-07 17:19:00+00:00,367.0363,3.4,14.4,47.84626,-54.09684
2022-01-07 17:29:00+00:00,352.7263,3.5,14.4,47.84626,-54.09684
2022-01-07 17:39:00+00:00,355.2679,3.51,14.4,47.84626,-54.09684
2022-01-07 17:49:00+00:00,355.00800000000015,3.54,14.4,47.84626,-54.09684
2022-01-07 17:59:00+00:00,345.3663,3.58,14.4,47.84626,-54.09684
2022-01-07 18:09:00+00:00,332.9564,3.6,14.4,47.84626,-54.09684
2022-01-07 18:19:00+00:00,327.343,3.6,13.84,47.84626,-54.09684
2022-01-07 18:29:00+00:00,314.8664,3.6,13.84,47.84626,-54.09684
2022-01-07 18:39:00+00:00,310.293,3.56,13.84,47.84626,-54.09684
2022-01-07 18:49:00+00:00,305.078,3.5,13.84,47.84626,-54.09684
2022-01-07 18:59:00+00:00,290.3096,3.4,13.84,47.84626,-54.09684
2022-01-07 19:09:00+00:00,271.3948,3.23,13.84,47.84626,-54.09684
2022-01-07 19:19:00+00:00,269.2064,3.2,13.37,47.84626,-54.09684
2022-01-07 19:29:00+00:00,276.0381,3.21,13.37,47.84626,-54.09684
2022-01-07 19:39:00+00:00,261.2331,3.2,13.37,47.84626,-54.09684
2022-01-07 19:49:00+00:00,236.3014,3.26,13.37,47.84626,-54.09684
2022-01-07 19:59:00+00:00,237.5281,3.29,13.37,47.84626,-54.09684
2022-01-07 20:09:00+00:00,239.0614,3.3,13.37,47.84626,-54.09684
2022-01-07 20:19:00+00:00,222.6831,3.3,12.97,47.84626,-54.09684
2022-01-07 20:29:00+00:00,223.3681,3.3,12.97,47.84626,-54.09684
2022-01-07 20:39:00+00:00,225.6348,3.3,12.97,47.84626,-54.09684
2022-01-07 20:49:00+00:00,200.8065,3.3,12.97,47.84626,-54.09684
2022-01-07 20:59:00+00:00,199.1881,3.3,12.97,47.84626,-54.09684
2022-01-07 21:09:00+00:00,208.8231,3.3,12.97,47.84626,-54.09684
2022-01-07 21:19:00+00:00,204.5348,3.3,12.73,47.84626,-54.09684
2022-01-07 21:29:00+00:00,214.9798,3.3,12.73,47.84626,-54.09684
2022-01-07 21:39:00+00:00,225.1631,3.31,12.73,47.84626,-54.09684
2022-01-07 21:49:00+00:00,235.3515,3.32,12.73,47.84626,-54.09684
2022-01-07 21:59:00+00:00,233.2848,3.35,12.73,47.84626,-54.09684
2022-01-07 22:09:00+00:00,234.2048,3.38,12.73,47.84626,-54.09684
2022-01-07 22:19:00+00:00,241.0131,3.39,12.73,47.84626,-54.09684
2022-01-07 22:29:00+00:00,236.3598,3.39,12.73,47.84626,-54.09684
2022-01-07 22:39:00+00:00,237.5098,3.4,12.73,47.84626,-54.09684
2022-01-07 22:49:00+00:00,256.7097,3.4,12.73,47.84626,-54.09684
2022-01-07 22:59:00+00:00,262.0247,3.4,12.73,47.84626,-54.09684
2022-01-07 23:09:00+00:00,253.6265,3.4,12.73,47.84626,-54.09684
2022-01-07 23:19:00+00:00,265.4314,3.4,12.65,47.84626,-54.09684
2022-01-07 23:29:00+00:00,280.448,3.4,12.65,47.84626,-54.09684
2022-01-07 23:39:00+00:00,280.808,3.46,12.65,47.84626,-54.09684
2022-01-07 23:49:00+00:00,265.8947,3.4,12.65,47.84626,-54.09684
2022-01-07 23:59:00+00:00,276.0914,3.4,12.65,47.84626,-54.09684
